Radiation Dose at Monitoring Post of Fukushima Daini Nuclear Power Station
Date,Time,MP-1(microSv/h),MP-2(microSv/h),MP-3(microSv/h),MP-4(microSv/h),MP-5(microSv/h),MP-6(microSv/h),MP-7(microSv/h),Wind Direction,Wind Velocity(m/s),Rain
2023/01/14,00:00,0.157,0.141,0.221,0.218,0.215,0.125,0.079,north,0.7,Yes
2023/01/14,00:10,0.157,0.141,0.220,0.217,0.217,0.126,0.079,north-northwest,1.1,Yes
2023/01/14,00:20,0.157,0.142,0.222,0.219,0.215,0.124,0.079,-,CALM,Yes
2023/01/14,00:30,0.157,0.143,0.224,0.219,0.216,0.125,0.079,north,0.6,Yes
2023/01/14,00:40,0.158,0.143,0.223,0.219,0.217,0.126,0.080,north-northwest,0.9,Yes
2023/01/14,00:50,0.157,0.142,0.223,0.219,0.216,0.125,0.080,-,CALM,Yes
2023/01/14,01:00,0.158,0.143,0.222,0.219,0.218,0.125,0.080,-,CALM,Yes
2023/01/14,01:10,0.158,0.143,0.222,0.219,0.216,0.126,0.081,-,CALM,Yes
2023/01/14,01:20,0.157,0.143,0.223,0.220,0.217,0.126,0.080,north,0.7,Yes
2023/01/14,01:30,0.157,0.143,0.222,0.219,0.217,0.125,0.079,north-northeast,0.9,No
2023/01/14,01:40,0.158,0.142,0.222,0.219,0.216,0.124,0.080,east,0.7,No
2023/01/14,01:50,0.157,0.142,0.221,0.219,0.217,0.124,0.080,east,0.8,No
2023/01/14,02:00,0.158,0.142,0.221,0.218,0.216,0.125,0.080,-,CALM,No
2023/01/14,02:10,0.157,0.142,0.223,0.219,0.215,0.125,0.080,-,CALM,No
2023/01/14,02:20,0.157,0.143,0.221,0.218,0.215,0.125,0.081,southwest,0.6,No
2023/01/14,02:30,0.157,0.141,0.221,0.217,0.216,0.126,0.080,south-southwest,0.7,No
2023/01/14,02:40,0.156,0.142,0.221,0.218,0.217,0.125,0.079,east-southeast,0.6,No
2023/01/14,02:50,0.157,0.142,0.221,0.219,0.216,0.125,0.080,west-northwest,1.2,No
2023/01/14,03:00,0.157,0.143,0.222,0.219,0.214,0.125,0.079,west,1.0,No
2023/01/14,03:10,0.156,0.142,0.222,0.219,0.216,0.125,0.079,west,1.0,No
2023/01/14,03:20,0.157,0.142,0.221,0.218,0.216,0.124,0.079,west-northwest,0.7,No
2023/01/14,03:30,0.158,0.142,0.221,0.218,0.215,0.125,0.079,-,CALM,No
2023/01/14,03:40,0.156,0.141,0.221,0.219,0.216,0.124,0.079,north-northwest,0.6,No
2023/01/14,03:50,0.157,0.141,0.221,0.218,0.215,0.126,0.079,-,CALM,Yes
2023/01/14,04:00,0.157,0.141,0.222,0.217,0.216,0.124,0.078,-,CALM,No
2023/01/14,04:10,0.156,0.141,0.222,0.218,0.215,0.125,0.080,-,CALM,No
2023/01/14,04:20,0.156,0.142,0.222,0.218,0.215,0.126,0.080,-,CALM,No
2023/01/14,04:30,0.157,0.142,0.222,0.218,0.216,0.125,0.079,-,CALM,No
2023/01/14,04:40,0.157,0.143,0.222,0.218,0.217,0.125,0.079,-,CALM,No
2023/01/14,04:50,0.157,0.142,0.221,0.219,0.215,0.125,0.079,-,CALM,No
2023/01/14,05:00,0.157,0.141,0.221,0.217,0.215,0.125,0.079,west-southwest,0.6,No
2023/01/14,05:10,0.157,0.143,0.223,0.219,0.216,0.124,0.079,west-southwest,1.0,No
2023/01/14,05:20,0.156,0.142,0.221,0.218,0.214,0.125,0.079,west-southwest,1.9,No
2023/01/14,05:30,0.157,0.142,0.221,0.217,0.214,0.125,0.080,west,2.3,No
2023/01/14,05:40,0.157,0.142,0.221,0.218,0.215,0.124,0.079,west-southwest,3.4,No
2023/01/14,05:50,0.156,0.142,0.221,0.218,0.214,0.125,0.079,southwest,2.5,No
2023/01/14,06:00,0.157,0.141,0.222,0.218,0.216,0.125,0.080,southwest,2.2,No
2023/01/14,06:10,0.157,0.142,0.221,0.219,0.215,0.124,0.079,southwest,2.7,No
2023/01/14,06:20,0.157,0.141,0.220,0.218,0.215,0.125,0.080,southwest,4.7,No
2023/01/14,06:30,0.157,0.141,0.222,0.218,0.215,0.124,0.079,south-southwest,4.6,No
2023/01/14,06:40,0.157,0.143,0.222,0.218,0.217,0.124,0.080,southwest,4.3,No
2023/01/14,06:50,0.158,0.141,0.221,0.219,0.215,0.125,0.080,southwest,2.3,No
2023/01/14,07:00,0.156,0.141,0.221,0.218,0.216,0.125,0.080,south-southwest,2.1,No
2023/01/14,07:10,0.156,0.141,0.222,0.218,0.215,0.125,0.079,southwest,5.2,No
2023/01/14,07:20,0.157,0.143,0.222,0.218,0.215,0.125,0.079,southwest,5.6,No
2023/01/14,07:30,0.157,0.142,0.221,0.217,0.216,0.125,0.080,southwest,3.8,No
2023/01/14,07:40,0.156,0.141,0.221,0.218,0.215,0.124,0.079,south,2.7,No
2023/01/14,07:50,0.157,0.142,0.220,0.218,0.215,0.125,0.079,southwest,3.1,No
2023/01/14,08:00,0.157,0.141,0.221,0.218,0.214,0.124,0.079,south-southwest,3.2,No
2023/01/14,08:10,0.156,0.141,0.221,0.217,0.214,0.125,0.079,southwest,3.2,No
2023/01/14,08:20,0.158,0.141,0.220,0.218,0.217,0.124,0.079,southwest,4.0,No
2023/01/14,08:30,0.157,0.141,0.221,0.217,0.214,0.125,0.079,south-southwest,3.0,No
2023/01/14,08:40,0.157,0.141,0.222,0.219,0.216,0.124,0.079,west-southwest,2.7,No
2023/01/14,08:50,0.157,0.141,0.220,0.216,0.215,0.124,0.079,west-southwest,3.9,No
2023/01/14,09:00,0.157,0.141,0.220,0.218,0.216,0.124,0.078,southwest,4.3,No
2023/01/14,09:10,0.157,0.141,0.221,0.216,0.215,0.124,0.079,southwest,2.2,No
2023/01/14,09:20,0.156,0.142,0.220,0.218,0.215,0.124,0.079,south-southeast,2.0,No
2023/01/14,09:30,0.156,0.142,0.222,0.216,0.213,0.124,0.080,south-southeast,2.1,No
2023/01/14,09:40,0.157,0.141,0.221,0.218,0.216,0.123,0.079,south-southeast,2.7,No
2023/01/14,09:50,0.156,0.142,0.220,0.217,0.214,0.124,0.079,south-southeast,3.0,No
2023/01/14,10:00,0.157,0.141,0.221,0.217,0.214,0.124,0.079,south-southeast,1.7,No
2023/01/14,10:10,0.156,0.141,0.220,0.217,0.213,0.125,0.079,southwest,1.3,No
2023/01/14,10:20,0.156,0.141,0.221,0.219,0.217,0.125,0.079,south-southwest,0.6,No
2023/01/14,10:30,0.156,0.142,0.220,0.218,0.214,0.125,0.079,south-southeast,1.3,No
2023/01/14,10:40,0.157,0.141,0.221,0.218,0.215,0.124,0.080,southeast,2.7,No
2023/01/14,10:50,0.155,0.142,0.219,0.218,0.215,0.125,0.079,south-southeast,4.3,No
2023/01/14,11:00,0.156,0.141,0.219,0.218,0.214,0.125,0.080,south-southeast,2.8,No
2023/01/14,11:10,0.156,0.142,0.220,0.219,0.216,0.125,0.079,south-southeast,3.1,No
2023/01/14,11:20,0.156,0.140,0.222,0.216,0.215,0.125,0.079,south-southeast,3.7,No
2023/01/14,11:30,0.156,0.141,0.221,0.218,0.217,0.125,0.079,south-southeast,3.0,No
2023/01/14,11:40,0.156,0.142,0.221,0.217,0.214,0.124,0.079,south,2.2,No
2023/01/14,11:50,0.157,0.142,0.220,0.218,0.217,0.126,0.079,south-southwest,1.8,No
2023/01/14,12:00,0.157,0.142,0.220,0.218,0.215,0.125,0.080,west,1.5,No
2023/01/14,12:10,0.157,0.141,0.221,0.219,0.216,0.126,0.079,west-northwest,1.1,No
2023/01/14,12:20,0.156,0.141,0.221,0.218,0.216,0.124,0.080,-,CALM,No
2023/01/14,12:30,0.158,0.141,0.222,0.217,0.215,0.125,0.079,-,CALM,No
2023/01/14,12:40,0.156,0.141,0.221,0.218,0.216,0.125,0.080,-,CALM,No
2023/01/14,12:50,0.157,0.141,0.222,0.217,0.214,0.125,0.079,-,CALM,No
2023/01/14,13:00,0.156,0.142,0.220,0.220,0.216,0.126,0.080,north-northeast,0.9,No
2023/01/14,13:10,0.156,0.141,0.222,0.217,0.215,0.124,0.080,-,CALM,No
2023/01/14,13:20,0.157,0.141,0.221,0.218,0.215,0.125,0.080,-,CALM,No
2023/01/14,13:30,0.156,0.141,0.223,0.217,0.215,0.124,0.079,-,CALM,No
2023/01/14,13:40,0.157,0.142,0.221,0.218,0.215,0.125,0.079,southeast,0.8,No
2023/01/14,13:50,0.156,0.140,0.221,0.218,0.216,0.125,0.079,southeast,1.0,No
2023/01/14,14:00,0.158,0.142,0.221,0.219,0.215,0.125,0.079,west,0.7,No
2023/01/14,14:10,0.156,0.142,0.222,0.218,0.217,0.124,0.079,-,CALM,No
2023/01/14,14:20,0.157,0.141,0.221,0.219,0.214,0.124,0.079,-,CALM,No
2023/01/14,14:30,0.155,0.141,0.222,0.217,0.216,0.124,0.079,west-northwest,1.0,No
2023/01/14,14:40,0.157,0.142,0.221,0.219,0.214,0.125,0.080,northwest,1.0,No
2023/01/14,14:50,0.155,0.142,0.222,0.217,0.216,0.125,0.080,northwest,1.8,No
2023/01/14,15:00,0.157,0.141,0.221,0.219,0.215,0.125,0.079,northwest,1.5,No
2023/01/14,15:10,0.156,0.142,0.222,0.218,0.216,0.126,0.080,north-northeast,0.6,No
2023/01/14,15:20,0.158,0.141,0.220,0.219,0.214,0.124,0.079,north-northeast,1.0,No
2023/01/14,15:30,0.156,0.142,0.221,0.217,0.215,0.125,0.079,-,CALM,No
2023/01/14,15:40,0.157,0.142,0.221,0.219,0.214,0.125,0.079,-,CALM,No
2023/01/14,15:50,0.157,0.142,0.221,0.219,0.217,0.124,0.080,-,CALM,No
2023/01/14,16:00,0.158,0.141,0.222,0.219,0.215,0.126,0.079,-,CALM,No
2023/01/14,16:10,0.157,0.143,0.221,0.219,0.215,0.125,0.080,north,0.7,No
2023/01/14,16:20,0.157,0.142,0.222,0.218,0.215,0.125,0.080,-,CALM,No
2023/01/14,16:30,0.156,0.141,0.221,0.218,0.216,0.125,0.079,-,CALM,No
2023/01/14,16:40,0.156,0.142,0.222,0.218,0.216,0.124,0.080,north,1.0,No
2023/01/14,16:50,0.158,0.141,0.222,0.219,0.218,0.124,0.079,north,1.7,No
2023/01/14,17:00,0.157,0.142,0.222,0.218,0.216,0.124,0.079,north-northeast,1.1,No
2023/01/14,17:10,0.157,0.141,0.221,0.219,0.217,0.125,0.080,north-northeast,1.4,No
2023/01/14,17:20,0.157,0.142,0.223,0.217,0.215,0.125,0.080,north-northeast,1.4,No
2023/01/14,17:30,0.157,0.144,0.221,0.218,0.216,0.125,0.080,north-northeast,1.4,No
2023/01/14,17:40,0.157,0.142,0.222,0.219,0.217,0.124,0.080,north,1.1,No
2023/01/14,17:50,0.157,0.142,0.220,0.218,0.215,0.125,0.080,north-northeast,1.0,No
2023/01/14,18:00,0.158,0.143,0.222,0.219,0.216,0.126,0.080,north-northeast,1.0,No
2023/01/14,18:10,0.157,0.142,0.222,0.219,0.215,0.125,0.079,north,1.9,No
2023/01/14,18:20,0.158,0.142,0.221,0.220,0.217,0.124,0.079,north-northwest,3.3,No
2023/01/14,18:30,0.156,0.142,0.222,0.218,0.215,0.125,0.079,north-northwest,3.6,No
2023/01/14,18:40,0.157,0.142,0.223,0.219,0.217,0.126,0.079,north-northwest,3.1,No
2023/01/14,18:50,0.156,0.142,0.221,0.219,0.217,0.125,0.079,northwest,4.5,No
2023/01/14,19:00,0.157,0.141,0.224,0.217,0.215,0.126,0.079,northwest,4.9,No
2023/01/14,19:10,0.157,0.142,0.221,0.219,0.218,0.125,0.080,northwest,3.8,No
2023/01/14,19:20,0.156,0.141,0.221,0.219,0.215,0.126,0.080,northwest,3.3,No
2023/01/14,19:30,0.157,0.140,0.222,0.218,0.216,0.124,0.079,northwest,4.4,No
2023/01/14,19:40,0.157,0.142,0.221,0.219,0.215,0.125,0.079,northwest,3.6,No
2023/01/14,19:50,0.157,0.142,0.221,0.218,0.217,0.125,0.080,northwest,4.4,No
2023/01/14,20:00,0.158,0.142,0.221,0.219,0.215,0.124,0.078,north-northwest,6.1,No
2023/01/14,20:10,0.156,0.142,0.221,0.218,0.216,0.124,0.079,north-northwest,6.0,No
2023/01/14,20:20,0.158,0.142,0.222,0.217,0.215,0.124,0.079,north-northwest,5.8,No
2023/01/14,20:30,0.156,0.142,0.221,0.218,0.215,0.125,0.079,north,6.6,No
2023/01/14,20:40,0.156,0.141,0.220,0.217,0.216,0.124,0.080,north-northwest,6.9,No
2023/01/14,20:50,0.157,0.141,0.222,0.219,0.214,0.124,0.080,north,7.7,No
2023/01/14,21:00,0.156,0.143,0.221,0.219,0.216,0.125,0.079,north,9.6,No
2023/01/14,21:10,0.157,0.142,0.221,0.217,0.215,0.124,0.080,north-northwest,7.4,No
2023/01/14,21:20,0.156,0.142,0.222,0.218,0.217,0.125,0.079,north-northwest,8.8,No
2023/01/14,21:30,0.158,0.142,0.221,0.218,0.216,0.124,0.080,north-northwest,8.1,No
2023/01/14,21:40,0.157,0.142,0.221,0.218,0.214,0.125,0.080,north-northwest,8.2,No
2023/01/14,21:50,0.158,0.142,0.222,0.219,0.218,0.125,0.079,north-northwest,7.6,No
2023/01/14,22:00,0.157,0.143,0.223,0.219,0.216,0.125,0.079,north-northwest,8.2,No
2023/01/14,22:10,0.157,0.142,0.222,0.219,0.217,0.127,0.079,northwest,8.3,No
2023/01/14,22:20,0.157,0.141,0.222,0.218,0.216,0.124,0.080,north-northwest,8.5,No
2023/01/14,22:30,0.157,0.141,0.222,0.217,0.216,0.125,0.079,north-northwest,8.3,Yes
2023/01/14,22:40,0.157,0.142,0.221,0.218,0.217,0.125,0.079,north-northwest,7.1,Yes
2023/01/14,22:50,0.157,0.142,0.222,0.218,0.215,0.125,0.079,north-northwest,7.6,Yes
2023/01/14,23:00,0.157,0.144,0.221,0.219,0.216,0.125,0.080,north-northwest,6.5,Yes
2023/01/14,23:10,0.158,0.141,0.222,0.220,0.216,0.125,0.080,north-northwest,6.0,Yes
2023/01/14,23:20,0.159,0.142,0.223,0.219,0.217,0.125,0.080,north-northwest,6.1,Yes
2023/01/14,23:30,0.158,0.143,0.222,0.218,0.217,0.126,0.080,north-northwest,5.8,Yes
2023/01/14,23:40,0.159,0.143,0.223,0.219,0.217,0.126,0.080,north-northwest,6.8,Yes
2023/01/14,23:50,0.158,0.142,0.224,0.219,0.217,0.126,0.081,north-northwest,6.9,Yes
